Regional Weather Roundup
Issued by NWS Wakefield, VA

Home | Current Version | Previous Version | Text Only | Print | Product List | Glossary On
Versions: 1 2 3 4 5 6 7 8 9 10 11 12 13 14 15 16 17 18 19 20 21 22 23 24 25 26 27 28 29 30 31 32 33 34 35 36 37 38 39 40 41 42 43 44 45 46 47 48 49 50
000
ASUS41 KAKQ 311210
RWRAKQ

REGIONAL WEATHER ROUNDUP
NATIONAL WEATHER SERVICE WAKEFIELD VA
800 AM EDT THU JUL 31 2014

Note: "fair" indicates few or no clouds below 12,000 feet with no
significant weather and/or obstructions to visibility. * = Denotes
station may not report precipitation (e.g., rain,snow,etc.),
thunder or fog.

VAZ042-051-052>054-056-311300-
NORTHERN VIRGINIA

CITY           SKY/WX    TMP DP  RH WIND       PRES   REMARKS
WASH NATIONAL  MOSUNNY   71  60  68 SW5       30.11R
DULLES         MOSUNNY   63  59  87 SW3       30.10S
FORT BELVOIR   SUNNY     65  61  85 CALM      30.11R
QUANTICO       SUNNY     68  60  75 VRB3      30.11R
FREDERICKSBRG* SUNNY     66  64  93 CALM      30.10R
STAFFORD*      SUNNY     63  63 100 CALM      30.15R
WARRENTON      SUNNY     64  64 100 CALM      30.10S
CULPEPER*      SUNNY    N/A N/A N/A CALM      30.11S
MANASSAS*      SUNNY     63  61  94 CALM      30.11R
LEESBURG*      SUNNY     64  63  94 CALM      30.12R
WINCHESTER     SUNNY     63  59  88 W5        30.11R
$$

VAZ048-049-060>072-079>083-311300-
CENTRAL AND SOUTH CENTRAL VIRGINIA...AND NORTH CENTRAL NORTH CAROLINA

CITY           SKY/WX    TMP DP  RH WIND       PRES   REMARKS
RICHMOND       PTSUNNY   70  64  81 S5        30.12R
CHESTERFIELD*  MOSUNNY  N/A N/A N/A CALM      30.14R
HANOVER        SUNNY     65  61  87 CALM      30.14R FOG
TAPPAHANNOCK*  SUNNY     68  62  80 S3        30.13R
CHARLOTTSVILLE SUNNY     63  58  83 S3        30.12R
ORANGE*        SUNNY     63  59  88 S3        30.13R
LOUISA*        SUNNY     66  61  82 SW3       30.11R
FARMVILLE*     MOSUNNY   63  61  94 S3        30.11R
SOUTH HILL*    MOSUNNY   70  70 100 CALM      30.18R
ROANOKE RAPIDS NOT AVBL
RALEIGH        PTSUNNY   69  65  86 CALM      30.12R
$$

VAZ088>098-311300-
SOUTHEAST VIRGINIA

CITY           SKY/WX    TMP DP  RH WIND       PRES   REMARKS
NORFOLK        PTSUNNY   71  63  75 S3        30.13R
VIRGINIA BEACH PTSUNNY   71  65  81 CALM      30.13R
NORFOLK NAVAL  MOSUNNY   73  64  73 SE3       30.14R
WEST POINT*    SUNNY     72  65  78 S3        30.14R
NEWPORT NEWS   SUNNY     75  67  76 CALM      30.13R
LANGLEY AFB    SUNNY     72  68  86 S3        30.12S
FORT EUSTIS    SUNNY     73  68  84 SW6       30.11R
WILLIAMSBURG*  SUNNY     73  66  78 S5        30.14R
FRANKLIN*      SUNNY     68  64  88 CALM      30.13S
WAKEFIELD      MOSUNNY   68  63  84 S3        30.13R
$$

VAZ020-022-025-037-045-311300-
WESTERN AND SOUTHWEST VIRGINIA

CITY           SKY/WX    TMP DP  RH WIND       PRES   REMARKS
STAUNTON*      SUNNY     59  55  85 CALM      30.16R
HOT SPRINGS VA SUNNY     57  50  79 W9        30.23S
LYNCHBURG      MOSUNNY   64  61  90 CALM      30.15R
DANVILLE       PTSUNNY   64  61  90 CALM      30.14R
MARTINSVILLE   PTSUNNY   61  59  94 CALM      30.17R
ROANOKE        PTSUNNY   62  55  77 W3        30.17R
BLACKSBURG     MOSUNNY   59  59 100 CALM        N/A  FOG
DUBLIN*        MOSUNNY   57  57  99 CALM      30.20S
MARION*        MOSUNNY   54  52  94 CALM      30.22S
HILLSVILLE*    PTSUNNY   54  53  95 S3        30.21R
RICHLANDS*     PTSUNNY   61  56  83 NE3       30.19S
WISE*          MOSUNNY   61  57  88 CALM      30.20S
ABINGDON*      PTSUNNY   61  57  86 E6        30.17S
$$

MDZ021>025-VAZ099-100-311300-
SOUTHERN MARYLAND AND THE DELMARVA PENINSULA

CITY           SKY/WX    TMP DP  RH WIND       PRES   REMARKS
PATUXENT RIVER SUNNY     69  64  84 SW7       30.11R
BAY BRIDGE APT   N/A     72  63  73 SW5       30.10S
LEONARDTOWN    SUNNY     70  63  78 SW6       30.13R
DOVER          SUNNY     68  65  88 S8        30.10R
GEORGETOWN     SUNNY     68  62  81 S9        30.13R
EASTON         SUNNY     72  66  83 CALM      30.14R
CAMBRIDGE      SUNNY     70  64  83 CALM      30.11R
SALISBURY      SUNNY     70  62  76 S3        30.12R
OCEAN CITY     SUNNY     72  67  84 SW5       30.13R
WALLOPS ISLAND SUNNY     73  65  75 SW8       30.13R
ACCOMACK*        N/A     70  63  78 S6        30.13R
$$

NCZ012>017-030>032-311300-
EASTERN NORTH CAROLINA

CITY           SKY/WX    TMP DP  RH WIND       PRES   REMARKS
ELIZABETH CITY PTSUNNY   70  67  90 CALM      30.13R
AHOSKIE*       MOSUNNY   67  64  90 CALM      30.14R
EDENTON*       PTSUNNY   67  65  93 CALM      30.13R
CURRITUCK*     PTSUNNY   70  66  87 CALM      30.14R
KILL DEVIL HLS PTSUNNY   73  67  82 CALM      30.12S
MANTEO         NOT AVBL
CAPE HATTERAS  SUNNY     79  66  64 E5        30.12R
GOLDSBORO      CLOUDY    70  69  98 NE2       30.10R
WASHINGTON     PTSUNNY   67  64  90 CALM      30.13R
GREENVILLE     CLOUDY    70  66  88 CALM      30.14R
NEW BERN       PTSUNNY   74  68  81 NE3       30.12R
WILMINGTON     CLOUDY    73  69  87 NE5       30.08R
$$

VAZ048-311300-
ELSEWHERE

CITY           SKY/WX    TMP DP  RH WIND       PRES   REMARKS
HARRISBURG PA  MOSUNNY   66  61  84 SE5       30.09R
BALTIMORE      MOSUNNY   66  59  78 CALM      30.09S
ANNAPOLIS      SUNNY     69  61  75 CALM      30.10R
ANDREWS AFB    SUNNY     68  62  79 SW9       30.11R
WILMINGTON DE  SUNNY     66  59  78 S3        30.12R
PHILADELPHIA   PTSUNNY   68  59  73 S6        30.11R
WILDWOOD NJ*   SUNNY     72  63  73 SW6       30.13S
ATLANTIC CITY  SUNNY     69  58  67 SW7       30.12R
HENDERSON NC   PTSUNNY   66  64  93 CALM      30.13R FOG
GREENSBORO     CLOUDY    66  63  90 CALM      30.13R
ROCKY MOUNT    CLOUDY    69  65  86 E3        30.12R
FAYETTEVILLE   CLOUDY    72  68  87 N5        30.10R
CHARLOTTE      CLOUDY    72  64  76 E7        30.11S
$$

VAZ100-311300-
MARINE

STATION/POSITION TIME  TEMP    WIND        PRES    WAVE   SWELL
                       AIR SEA DIR/SP/G            HT/PER HT/PER
                 (UTC) (F)     (DEG/KT/KT) (MB)    (FT/S) (FT/S)
44066 TX TWR #4  1200   73 74  280/  8/ 10 1019.8R   3/ 8   3/ 8
CAPE MAY NJ      1200   71 76  210/  8/ 11 1019.4R
LEWES DE         1200   70 70  210/  3/  6 1019.6R
15NM E FENWICK I 1200   74 73              1020.3R   3/ 8
OCEAN-CITY-INLET 1200   72 72  220/  6/  7 1019.6S
WACHAPREAGUE VA  1200   73 78  220/  1/  3 1020.2R
THOMAS POINT MD  1200   69 77  210/  8/  9 1019.9R
GOOSES REEF MD   1200   72     250/ 12/ 14 1019.7R
COVE POINT MD    1200   70     250/ 11/ 15 1019.3R
SOLOMONS ISLAND  1200      79                N/A
BISHOPS HEAD MD  1200   74 76  240/ 16/ 18 1019.2R
PINEY POINT MD   1200          230/  8/  9   N/A
POTOMAC MD       1200   72     230/ 12/ 16 1018.9R
CAMBRIDGE MD     1200   71 78  200/  3/  5 1019.4R
LEWISETTA VA     1200   70 77  230/  8/  9 1019.6R
RAPPAHANNOCK LGT 1200          200/ 11/ 13 1020.5R
STINGRAY PT      1200   74     220/ 12/ 14 1020.4S
YORK RVR RNG VA  1200   73     200/  8/  9 1019.5R
YORKTOWN VA      1200   72 78  200/  5/  6 1019.8R
JAMESTOWN VA     1200   71     230/  6/ 10   N/A
DOMINION TERM VA 1200   72     180/  8/ 10 1020.1R
KIPTOPEKE VA     1200      80  200/  9/ 10   N/A
CHES BAY BRIDGE  1200   73 77  180/  8/  9 1019.7R
CAPE HENRY VA    1200   72     180/  5/  8 1019.0R
WILLOUBY STN VA  1200          180/  8/  9 1019.4R
S CRANEY ISL VA  1200          160/  6/  7 1020.2R
CAPE HENRY BUOY  1200      75                N/A     2/ 7
1ST LANDING BUOY 1200   74     190/  6/  8 1019.9R
CAPE CHARLES BUO 1200      76                N/A     2/ 8
OFFSHORE WE BUOY 1200      77                N/A     3/ 7
64NM E OF VA BCH 1200   76 78  100/  4/  6 1020.1R   3/ 8   2/ 8
DUCK PIER NC     1200   76 76  130/  4/  4 1019.6R
44056 DUCK FRF   1200                        N/A     2/ 8
OREGON INLET NC  1200   77 79   70/  5/  7 1020.1R
HATTERAS NC      1200   78 79   70/  4/  6 1020.2R
DIAMOND SHLS NC  1200          VRB 10/ 12  1019.4R   3/ 6   3/ 6
CAPE LOOKOUT NC  1100   79      80/ 11/ 12 1018.7R
$$


USA.gov is the U.S. government's official web portal to all federal, state and local government web resources and services.